Torna al catalogo

STARLINK-36588

AttivoComunicazioniSSO
NORAD 67573·PAYLOAD·🇺🇸 United States

Lanciato Jan 25, 2026 da Vandenberg Space Force Base

Loading…

Prossimi Passaggi (prossime 24 ore)

TLE

AggiornatoSource: CelesTrak SupGP

Epoca: Sep 14, 2026, 21:31 UTC

1 67573C 26016N   26257.89701389 -.00015865  00000+0 -49252-3 0  2578
2 67573  97.2849 316.5997 0001322  87.1434 109.8415 15.33445353    19

Traccia STARLINK-36588 in tempo reale con AllMySat

Download on the App Store